World > North America > United States > New York > Au Sable Forks

Au Sable Forks, NY Hourly Weather Conditions

Feedback E-mail the Weather

Quick WX

Au Sable Forks, NY Weather Maps

°F °C°F °C
Au Sable Forks Weather Map
UTC Time: 2/2/2023, 17:18
Your Time:

Au Sable Forks, NY Regional Weather

Expires:202302021800;;682634
ASUS41 KBTV 021710
RWRBTV
VERMONT REGIONAL WEATHER ROUNDUP
NATIONAL WEATHER SERVICE BURLINGTON VT
1200 PM EST THU FEB 02 2023

NOTE: "FAIR" INDICATES FEW OR NO CLOUDS BELOW 12,000 FEET WITH NO 
SIGNIFICANT WEATHER AND/OR OBSTRUCTIONS TO VISIBILITY.

* THESE REPORTS ARE NOT UNDER NWS QUALITY CONTROL AND/OR DO NOT
  REPORT WEATHER SUCH AS PRECIPITATION AND FOG.


NYZ007-026>031-035-052-083-087-021800-
_____NORTHERN NEW YORK_
  
CITY           SKY/WX    TMP DP  RH WIND       PRES   REMARKS
PLATTSBURGH    CLOUDY    26  15  63 SE14      29.94F WCI  14          
SARANAC LAKE   CLOUDY    22  11  62 SW16G24   29.83F WCI   8          
MASSENA        MIX PCPN  26  18  71 S21G33    29.88F WCI  12          
OGDENSBURG*    PTSUNNY   28  19  69 S22G30    29.86F WCI  15          
WATERTOWN      CLOUDY    28  17  63 S17G29    29.94F WCI  16          
FT DRUM        CLOUDY    26  10  51 SW20G28   29.90F WCI  12          
ALBANY         CLOUDY    29  13  51 SE9       30.07F WCI  20          
GLENS FALLS    CLOUDY    25  13  60 S14       30.04F WCI  13          

$$

SKY/WX - Weather  TMP - Temperature  DP - Dew Point  RH - Humidity
WIND - Wind Direction/Speed PRES - Barometric Pressure VSB - Visibility
WCI - Wind Chill Index E13G22 Wind - East Wind 13 mph/Gusts of 22 mph

Trending Headlines

Trending Entertainment Headlines

Au Sable Forks Radar Loop

Use the map search tool if you want to place a location marker on the radar map...

Au Sable Forks Quick Facts

National Two Day Weather Forecast


E-mail the Au Sable Forks Weather Forecast

Voice your opinion or tell us about page issues...